| time (UTC) | temp F | wind direction | speed knots | gust knots | rain 1hr in | rain 24hr in | rain mn in | humidity % | barometer mb |
| 20260508163055 | 66 | 298 | 4.3 | 9.6 | 0.00 | 0.01 | 0.00 | 73 | 1013.6 |
| 20260508161556 | 66 | 351 | 4.3 | 9.6 | 0.00 | 0.01 | 0.00 | 72 | 1013.4 |
| 20260508160054 | 66 | 345 | 3.5 | 12.2 | 0.00 | 0.02 | 0.00 | 72 | 1013.6 |
| 20260508154554 | 66 | 324 | 6.1 | 11.3 | 0.00 | 0.02 | 0.00 | 70 | 1013.7 |
| 20260508153052 | 66 | 300 | 5.2 | 13.0 | 0.00 | 0.02 | 0.00 | 69 | 1013.8 |
| 20260508151557 | 67 | 333 | 7.8 | 13.9 | 0.00 | 0.02 | 0.00 | 69 | 1013.8 |
| 20260508150049 | 67 | 347 | 5.2 | 13.0 | 0.00 | 0.02 | 0.00 | 67 | 1013.8 |
| 20260508144551 | 67 | 360 | 5.2 | 11.3 | 0.00 | 0.02 | 0.00 | 68 | 1013.8 |
| 20260508143056 | 67 | 354 | 5.2 | 13.0 | 0.00 | 0.02 | 0.00 | 69 | 1013.8 |
| 20260508141546 | 66 | 308 | 6.1 | 13.0 | 0.00 | 0.02 | 0.00 | 67 | 1013.9 |
| 20260508140053 | 66 | 294 | 5.2 | 12.2 | 0.00 | 0.03 | 0.00 | 69 | 1014.0 |
| 20260508134551 | 66 | 360 | 4.3 | 10.4 | 0.00 | 0.03 | 0.00 | 70 | 1013.9 |
| 20260508133052 | 66 | 309 | 7.0 | 13.0 | 0.00 | 0.03 | 0.00 | 69 | 1014.0 |
| 20260508131547 | 66 | 329 | 5.2 | 11.3 | 0.00 | 0.03 | 0.00 | 69 | 1014.1 |
| 20260508130059 | 66 | 3 | 6.1 | 12.2 | 0.00 | 0.03 | 0.00 | 68 | 1014.0 |
| 20260508124549 | 66 | 286 | 5.2 | 12.2 | 0.00 | 0.03 | 0.00 | 68 | 1014.1 |
| 20260508123053 | 66 | 329 | 4.3 | 11.3 | 0.00 | 0.03 | 0.00 | 68 | 1014.3 |
| 20260508121544 | 66 | 345 | 6.1 | 12.2 | 0.00 | 0.03 | 0.00 | 68 | 1014.2 |
| 20260508120041 | 67 | 323 | 5.2 | 10.4 | 0.00 | 0.03 | 0.00 | 65 | 1014.2 |
| 20260508114546 | 66 | 36 | 4.3 | 11.3 | 0.00 | 0.03 | 0.00 | 64 | 1014.3 |
| 20260508113037 | 66 | 8 | 1.7 | 7.0 | 0.00 | 0.03 | 0.00 | 65 | 1014.2 |
| 20260508111535 | 66 | 334 | 2.6 | 9.6 | 0.00 | 0.03 | 0.00 | 64 | 1014.2 |
| 20260508110039 | 65 | 116 | 0.0 | 3.5 | 0.00 | 0.03 | 0.00 | 67 | 1014.4 |
| 20260508104532 | 64 | 292 | 4.3 | 10.4 | 0.00 | 0.03 | 0.00 | 66 | 1014.4 |
| 20260508103040 | 64 | 296 | 2.6 | 9.6 | 0.00 | 0.03 | 0.00 | 68 | 1014.3 |
| 20260508101538 | 64 | 335 | 3.5 | 8.7 | 0.00 | 0.03 | 0.00 | 68 | 1014.3 |
| 20260508100030 | 64 | 307 | 2.6 | 9.6 | 0.00 | 0.03 | 0.00 | 68 | 1014.4 |
| 20260508094541 | 64 | 7 | 2.6 | 7.0 | 0.00 | 0.03 | 0.00 | 67 | 1014.5 |
| 20260508093029 | 63 | 325 | 2.6 | 6.1 | 0.00 | 0.03 | 0.00 | 63 | 1014.4 |
| 20260508091541 | 64 | 311 | 2.6 | 6.1 | 0.00 | 0.03 | 0.00 | 63 | 1014.1 |
| 20260508090029 | 64 | 2 | 1.7 | 5.2 | 0.00 | 0.03 | 0.00 | 64 | 1014.0 |
| 20260508084522 | 62 | 187 | 0.9 | 5.2 | 0.00 | 0.03 | 0.00 | 78 | 1013.9 |
| 20260508083021 | 60 | 175 | 2.6 | 6.1 | 0.00 | 0.03 | 0.00 | 78 | 1013.5 |
| 20260508081530 | 61 | 227 | 1.7 | 5.2 | 0.00 | 0.03 | 0.00 | 78 | 1013.6 |
| 20260508080019 | 61 | 243 | 0.9 | 4.3 | 0.00 | 0.03 | 0.00 | 78 | 1013.7 |
| 20260508074518 | 60 | 253 | 2.6 | 5.2 | 0.00 | 0.03 | 0.00 | 79 | 1013.6 |
| 20260508073017 | 60 | 254 | 1.7 | 4.3 | 0.00 | 0.03 | 0.00 | 80 | 1013.5 |
| 20260508071522 | 60 | 239 | 2.6 | 6.1 | 0.00 | 0.03 | 0.00 | 80 | 1013.4 |
| 20260508070016 | 60 | 242 | 1.7 | 3.5 | 0.00 | 0.03 | 0.00 | 80 | 1013.1 |
| 20260508064527 | 60 | 227 | 1.7 | 4.3 | 0.00 | 0.03 | 0.00 | 81 | 1013.1 |
| 20260508063014 | 60 | 254 | 1.7 | 3.5 | 0.00 | 0.03 | 0.00 | 82 | 1012.9 |
| 20260508061519 | 60 | 216 | 1.7 | 4.3 | 0.00 | 0.03 | 0.00 | 83 | 1012.9 |
| 20260508060021 | 60 | 255 | 2.6 | 5.2 | 0.00 | 0.03 | 0.00 | 83 | 1012.7 |
| 20260508054513 | 60 | 222 | 1.7 | 5.2 | 0.00 | 0.03 | 0.00 | 84 | 1012.7 |
| 20260508053012 | 60 | 231 | 1.7 | 3.5 | 0.00 | 0.03 | 0.00 | 83 | 1012.5 |
| 20260508051510 | 60 | 205 | 1.7 | 5.2 | 0.00 | 0.03 | 0.00 | 81 | 1012.6 |
| 20260508050010 | 59 | 239 | 1.7 | 4.3 | 0.00 | 0.03 | 0.00 | 80 | 1012.5 |
| 20260508044510 | 59 | 212 | 2.6 | 4.3 | 0.00 | 0.03 | 0.00 | 81 | 1012.3 |
| 20260508043012 | 58 | 172 | 4.3 | 7.8 | 0.00 | 0.03 | 0.00 | 81 | 1012.4 |
| 20260508041506 | 58 | 175 | 5.2 | 7.0 | 0.00 | 0.03 | 0.00 | 82 | 1012.5 |
| 20260508040006 | 58 | 158 | 3.5 | 6.1 | 0.00 | 0.03 | 0.00 | 82 | 1012.6 |
| 20260508034504 | 59 | 177 | 2.6 | 5.2 | 0.00 | 0.03 | 0.00 | 81 | 1012.6 |
| 20260508033122 | 60 | 208 | 2.6 | 5.2 | 0.00 | 0.03 | 0.00 | 80 | 1012.6 |
| 20260508031559 | 59 | 261 | 0.9 | 3.5 | 0.00 | 0.03 | 0.00 | 83 | 1012.6 |
| 20260508030110 | 59 | 175 | 1.7 | 3.5 | 0.00 | 0.03 | 0.00 | 84 | 1012.7 |
| 20260508024620 | 59 | 176 | 2.6 | 3.5 | 0.00 | 0.03 | 0.00 | 84 | 1012.8 |
| 20260508023054 | 59 | 173 | 2.6 | 5.2 | 0.00 | 0.03 | 0.00 | 84 | 1012.9 |
| 20260508021552 | 60 | 178 | 1.7 | 3.5 | 0.00 | 0.03 | 0.00 | 85 | 1013.1 |
| 20260508020104 | 61 | 212 | 0.0 | 1.7 | 0.00 | 0.06 | 0.00 | 85 | 1013.3 |
| 20260508014554 | 64 | 85 | 0.0 | 2.6 | 0.00 | 0.06 | 0.00 | 82 | 1013.4 |
| 20260508013049 | 64 | 85 | 0.0 | 0.0 | 0.00 | 0.06 | 0.00 | 82 | 1013.5 |
| 20260508011545 | 64 | 85 | 0.0 | 0.0 | 0.00 | 0.06 | 0.00 | 82 | 1013.6 |
| 20260508010042 | 64 | 85 | 0.9 | 5.2 | 0.00 | 0.06 | 0.00 | 82 | 1013.7 |
| 20260508004541 | 63 | 73 | 2.6 | 4.3 | 0.00 | 0.06 | 0.00 | 83 | 1013.5 |
| 20260508003043 | 63 | 227 | 0.0 | 2.6 | 0.00 | 0.06 | 0.00 | 82 | 1013.7 |
| 20260508001548 | 64 | 280 | 0.9 | 3.5 | 0.00 | 0.06 | 0.00 | 82 | 1013.9 |
| 20260508000035 | 63 | 287 | 0.0 | 0.0 | 0.00 | 0.06 | 0.00 | 82 | 1014.0 |
| 20260507234536 | 63 | 287 | 0.0 | 0.0 | 0.00 | 0.06 | 0.00 | 82 | 1014.1 |
| 20260507233036 | 63 | 287 | 0.0 | 0.0 | 0.00 | 0.06 | 0.00 | 82 | 1014.1 |
| 20260507231532 | 63 | 286 | 0.0 | 0.0 | 0.00 | 0.06 | 0.00 | 81 | 1014.0 |
| 20260507230035 | 64 | 286 | 0.0 | 0.0 | 0.00 | 0.06 | 0.06 | 80 | 1014.1 |
| 20260507224533 | 64 | 286 | 0.9 | 3.5 | 0.00 | 0.06 | 0.06 | 80 | 1014.1 |
| 20260507223030 | 64 | 96 | 0.0 | 0.0 | 0.00 | 0.06 | 0.06 | 80 | 1014.0 |
| 20260507221530 | 64 | 96 | 0.0 | 0.0 | 0.00 | 0.06 | 0.06 | 79 | 1014.1 |
| 20260507220029 | 64 | 112 | 0.9 | 2.6 | 0.00 | 0.06 | 0.06 | 79 | 1014.0 |
| 20260507214527 | 64 | 202 | 0.0 | 0.0 | 0.00 | 0.06 | 0.06 | 78 | 1013.9 |
| 20260507213034 | 64 | 202 | 0.0 | 0.0 | 0.00 | 0.06 | 0.06 | 78 | 1013.7 |
| 20260507211537 | 64 | 202 | 1.7 | 4.3 | 0.00 | 0.06 | 0.06 | 79 | 1013.8 |
| 20260507210026 | 64 | 185 | 0.0 | 6.1 | 0.00 | 0.06 | 0.06 | 79 | 1013.8 |
| 20260507204525 | 64 | 167 | 0.0 | 0.0 | 0.00 | 0.06 | 0.06 | 79 | 1013.7 |
| 20260507203024 | 64 | 167 | 0.0 | 0.0 | 0.01 | 0.06 | 0.06 | 79 | 1013.5 |
| 20260507201534 | 64 | 167 | 0.0 | 3.5 | 0.01 | 0.06 | 0.06 | 78 | 1013.4 |
| 20260507200028 | 65 | 194 | 2.6 | 4.3 | 0.01 | 0.06 | 0.06 | 78 | 1013.3 |
| 20260507194522 | 65 | 186 | 0.0 | 2.6 | 0.01 | 0.06 | 0.06 | 77 | 1013.0 |
| 20260507193024 | 65 | 90 | 1.7 | 7.8 | 0.00 | 0.06 | 0.06 | 76 | 1013.0 |
| 20260507191524 | 67 | 342 | 1.7 | 5.2 | 0.00 | 0.06 | 0.06 | 75 | 1012.7 |
| 20260507190021 | 67 | 214 | 0.9 | 4.3 | 0.00 | 0.06 | 0.06 | 75 | 1012.5 |
| 20260507184520 | 67 | 205 | 3.5 | 8.7 | 0.00 | 0.06 | 0.06 | 75 | 1012.2 |
| 20260507183022 | 67 | 226 | 4.3 | 8.7 | 0.00 | 0.06 | 0.06 | 75 | 1012.1 |
| 20260507181518 | 67 | 255 | 3.5 | 6.1 | 0.00 | 0.06 | 0.06 | 75 | 1012.1 |
| 20260507180035 | 67 | 215 | 2.6 | 5.2 | 0.00 | 0.06 | 0.06 | 75 | 1012.2 |
| 20260507174521 | 68 | 303 | 1.7 | 7.0 | 0.00 | 0.06 | 0.06 | 75 | 1012.1 |
| 20260507173023 | 69 | 288 | 1.7 | 6.1 | 0.00 | 0.06 | 0.06 | 74 | 1012.1 |
| 20260507171514 | 69 | 23 | 4.3 | 7.0 | 0.00 | 0.06 | 0.06 | 75 | 1012.0 |
| 20260507170030 | 68 | 225 | 7.0 | 10.4 | 0.00 | 0.06 | 0.06 | 76 | 1012.1 |
| 20260507164613 | 67 | 212 | 4.3 | 7.0 | 0.00 | 0.06 | 0.06 | 78 | 1012.5 |